Location: Kenockee Observatory
(43.0173°N, 82.7297°W)
Time: 09:28:43
(UTC-04:00)

Daily predictions for brighter satellites

Satellite Brightness Start Highest point End
(mag) Time Altitude Azimuth Time Altitude Azimuth Time Altitude Azimuth
ATLAS CENTAUR R/B 3.6 19:26:17 10° SSW 19:30:55 59° ESE 19:45:02 10° NE
OAO 3 Rocket 4.5 19:37:29 10° WSW 19:41:37 31° S 19:45:49 10° ESE
Cosmos 1758 3.9 19:40:43 10° SSE 19:44:29 37° E 19:48:17 10° NNE
Cosmos 1464 Rocket 4.0 19:39:14 10° S 19:45:22 64° E 19:51:28 10° NNE
Cosmos 2034 Rocket 4.3 19:39:40 10° SSE 19:45:37 48° E 19:51:40 10° NNE
Cosmos 1378 3.3 19:44:52 10° N 19:48:37 77° W 19:52:19 10° S
SL-16 R/B 2.6 19:43:06 10° SSW 19:48:46 69° WNW 19:54:29 10° NNE
Cosmos 1408 Rocket 3.5 19:44:55 10° N 19:49:14 61° E 19:53:30 10° SSE
SKYMED 2 3.7 19:45:45 10° N 19:50:07 83° WNW 19:54:28 10° SSW
Meteor 1-21 Rocket 4.4 19:49:20 10° N 19:54:45 51° ENE 20:00:07 10° SSE
Cosmos 1766 3.7 19:52:55 10° SSW 19:56:52 69° W 20:00:52 10° N
CZ-4C R/B 4.1 19:56:00 10° W 20:00:47 29° NW 20:06:07 10° NNE
Spot 1 4.4 19:56:20 10° SSE 20:00:49 51° ENE 20:05:05 10° N
Helios 1A 3.6 19:57:23 10° SE 20:01:16 37° ENE 20:05:09 10° N
NOSS 3-2 (A) 4.1 20:00:03 10° SW 20:06:05 61° NW 20:12:44 10° NNE
Meteor 1-28 Rocket 3.0 20:03:51 10° NNE 20:07:35 73° E 20:11:17 10° S
Meteor 1-29 3.8 20:06:07 10° NE 20:09:12 29° E 20:12:17 10° SSE
GPS 2-04 Rocket1 4.1 20:10:41 10° SW 20:13:21 21° S 20:15:05 15° SE
NOAA 12 4.2 20:11:50 10° SSE 20:17:06 83° WSW 20:22:26 10° NNW
ASTEX 1 4.0 20:12:51 10° NNE 20:17:18 33° E 20:21:42 10° SSE
H-2A R/B 3.8 20:17:06 19° ESE 20:18:42 26° ENE 20:21:55 10° NNE
Cosmos 1943 Rocket 3.5 20:14:40 10° N 20:18:57 22° NE 20:21:11 17° E
Cosmos 1743 Rocket 3.5 20:15:39 10° N 20:20:04 62° E 20:24:25 10° SSE
Cosmos 1452 Rocket 4.2 20:14:54 10° NNW 20:20:04 59° WSW 20:25:12 10° S
Resurs 1-3 3.7 20:17:35 10° SSE 20:21:52 55° ENE 20:26:10 10° N
Cosmos 1805 3.4 20:18:33 10° SSW 20:22:29 78° W 20:26:27 10° N
ALOS 2.6 20:20:25 10° SE 20:24:49 43° ENE 20:29:15 10° N
Cosmos 2369 Rocket 2.4 20:21:26 10° NNW 20:26:56 50° ENE 20:31:02 18° SE
Cosmos 1943 3.5 20:24:01 10° S 20:29:18 43° ESE 20:34:37 10° NE
Helios 1B rocket 2.3 20:25:17 10° NNE 20:29:24 68° ESE 20:33:29 10° S
Resurs 01 Rocket 1.6 20:25:31 10° SSE 20:29:58 87° E 20:34:27 10° NNW
SL-8 R/B 3.6 20:26:21 10° WSW 20:31:08 81° SSE 20:34:18 21° ENE
CENTAUR R/B 2.6 20:25:46 10° S 20:31:33 51° ESE 20:38:03 10° NE
Gbstr 26 Del rocket 3.4 20:29:06 10° SSW 20:33:21 50° SE 20:36:27 22° ENE
Cosmos 1953 3.2 20:32:16 10° SSW 20:36:10 52° W 20:40:04 10° N
Cosmos 1603 3.9 20:30:49 10° SSW 20:36:34 74° WNW 20:42:20 10° NNE
ISS -3.5 20:33:19 10° SW 20:36:35 85° SE 20:37:46 36° ENE
BREEZE-M DEB (TANK) 4.0 20:23:17 10° W 20:38:44 72° N 20:41:39 26° E
Cosmos 1420 Rocket 4.3 20:33:58 10° NNW 20:39:16 72° WSW 20:44:33 10° S
Cosmos 1733 3.3 20:37:03 10° S 20:40:49 52° E 20:44:35 10° NNE
ERBS 3.8 20:41:20 10° NNW 20:44:16 24° NNE 20:44:31 24° NE
Nadezhda 4 Rocket 4.1 20:41:17 10° N 20:47:34 79° W 20:53:45 10° S
Cosmos 1674 2.7 20:43:57 10° N 20:47:51 84° W 20:51:28 12° S
Cosmos 1470 2.6 20:44:06 10° S 20:47:59 81° E 20:51:52 10° N
GP-B 3.3 20:47:32 10° NNE 20:51:51 48° E 20:52:57 39° SE
Cosmos 2058 3.8 20:48:49 10° N 20:51:47 30° NE 20:51:47 30° NE
Spot 2 Rocket 4.1 20:49:02 10° S 20:53:58 56° W 20:58:56 10° NNW
Abrixas 2.9 20:53:00 10° W 20:55:57 54° NNW 20:56:04 53° N
Cosmos 1092 Rocket 3.9 20:51:22 10° N 20:57:36 89° W 21:03:45 10° S
Cosmos 1048 Rocket 4.3 20:53:48 10° SSW 20:59:04 68° WNW 21:04:18 10° NNE
Cosmos 2151 2.8 20:56:48 10° N 21:01:01 64° E 21:01:36 56° ESE
H-2A R/B 4.5 21:03:10 11° NNE 21:03:10 11° NNE 21:03:35 10° NNE
ATLAS 5 CENTAUR R/B 3.7 20:58:31 10° W 21:02:48 29° NW 21:07:27 10° NNE
Envisat 4.0 21:05:37 30° NE 21:05:37 30° NE 21:09:22 10° N
Cosmos 2221 4.3 21:09:42 20° NNE 21:09:42 20° NNE 21:11:09 10° NNE
Cosmos 2142 Rocket 4.4 21:01:25 10° S 21:07:45 75° E 21:14:10 10° N
Cosmos 1655 Rocket 4.0 21:01:49 10° N 21:07:58 57° E 21:10:10 38° SE
Cosmos 2026 Rocket 3.9 21:02:31 10° N 21:08:36 64° E 21:11:21 33° SSE
Meteor 2-1 Rocket 4.5 21:08:30 43° ESE 21:09:26 47° E 21:15:03 10° NNE
Cosmos 1174 3.9 21:06:08 10° SW 21:10:48 78° WNW 21:12:05 41° NNE
Cosmos 158 Rocket 3.8 21:05:57 10° SSW 21:10:50 85° WNW 21:15:45 10° NNE
Meteor 1-16 Rocket 3.9 21:06:37 10° S 21:11:51 65° E 21:17:08 10° NNE
USA 215 3.1 21:09:20 16° NE 21:14:43 83° SE 21:21:16 10° SW
Cosmos 1634 Rocket 3.9 21:08:30 10° S 21:14:45 89° E 21:20:59 10° N
CZ-4B DEB 4.3 21:22:25 33° WSW 21:22:46 34° W 21:25:48 10° NNW
Meteor 1-11 4.1 21:17:43 10° N 21:23:34 82° E 21:25:15 48° SSE
Meteor 2-20 4.4 21:23:58 10° N 21:30:03 59° ENE 21:30:11 59° E
ERS-1 Rocket 3.3 21:35:50 52° NNE 21:35:50 52° NNE 21:39:51 10° N
BREEZE-M DEB (TANK) 4.4 21:53:56 10° W 22:02:33 46° NNW 22:02:54 45° N
Cosmos 1943 Rocket 2.5 21:57:38 10° NNW 22:02:44 62° W 22:02:44 62° W
Cosmos 2251 Rocket 4.4 22:03:45 10° SW 22:08:46 46° WNW 22:13:50 10° N
Cosmos 2369 Rocket 4.1 22:06:06 10° NW 22:10:37 25° WSW 22:12:52 19° SW
CENTAUR R/B 3.9 22:16:39 10° WSW 22:22:26 37° NW 22:28:55 10° NNE
USA 215 4.3 22:56:44 38° N 22:57:22 39° NNW 23:03:20 10° W
